Regional Weather Roundup
Issued by NWS

Home | Current Version | Previous Version | Graphics & Text | Print | Product List | Glossary On
Versions: 1 2 3 4 5 6 7 8 9 10 11 12 13 14 15 16 17 18 19 20 21 22 23 24 25 26 27
000
ASUS45 KBOU 151607
RWRCO

WEATHER ROUNDUP FOR COLORADO
NATIONAL WEATHER SERVICE DENVER/BOULDER CO
900 AM MST SUN JAN 15 2017

NOTE: "FAIR" INDICATES FEW OR NO CLOUDS BELOW 12000 FEET WITH NO
SIGNIFICANT WEATHER AND/OR OBSTRUCTIONS TO VISIBILITY.

COZ001>005-013-030-031-151700-
...NORTHWEST COLORADO...

CITY           SKY/WX    TMP DP  RH WIND       PRES   REMARKS
CRAIG          CLOUDY    22  20  92 CALM      30.09S FOG
HAYDEN         CLOUDY    25  19  80 E7        30.06F WCI  17
MEEKER         CLOUDY    28  25  88 CALM      30.06R
MOUNT WERNER   NOT AVBL
STEAMBOAT SPGS CLOUDY    21  20  95 CALM      30.06F VSB 3/4
WALDEN           N/A    N/A N/A N/A CALM      30.10R VSB 1/4
$$

COZ006>008-011-151700-
...WEST CENTRAL VALLEYS...

CITY           SKY/WX    TMP DP  RH WIND       PRES   REMARKS
GRAND JUNCTION CLOUDY    35  34  96 CALM      30.00S
MONTROSE       FOG       33  33 100 CALM      30.02S VSB 1/2
EAGLE          CLOUDY    28  25  86 E5        30.08S WCI  23
RIFLE          PTSUNNY   31  29  92 CALM      30.03S
DELTA          CLOUDY    38  37  97 CALM      30.02R FOG
NUCLA          CLOUDY    34  34 100 CALM      30.01R
$$

COZ017>023-064>068-151700-
...SOUTHWEST COLORADO...

CITY           SKY/WX    TMP DP  RH WIND       PRES   REMARKS
DURANGO        FAIR      33  32  96 S3        29.91S FOG
CORTEZ         CLOUDY    40  39  97 CALM      29.94R
PAGOSA SPRINGS FOG       33  33 100 CALM      29.95R VSB 1
TELLURIDE      NOT AVBL
WOLF CREEK PAS CLOUDY    21  21 100 N8        30.07S WCI  12
$$

COZ009-010-012-014-032>034-037-058>063-151700-
...CENTRAL COLORADO...

CITY           SKY/WX    TMP DP  RH WIND       PRES   REMARKS
ASPEN          MIX PCPN  23  23 100 CALM      30.00F
BUENA VISTA    CLOUDY    30  25  82 W3        30.05S
COPPER MTN     NOT AVBL
BERTHOUD PASS  NOT AVBL
COTTONWOOD PAS CLOUDY    30  27  86 W3        30.05F
GUNNISON       FOG       16  14  92 E5        30.05S VSB 1/4 WCI   9
KREMMLING      CLOUDY   N/A N/A N/A SE3       30.11S HAZE
LEADVILLE      CLOUDY    22  19  89 CALM      30.04S
MONARCH PASS   CLOUDY    21  19  93 NE16      30.15S WCI   7
SALIDA         CLOUDY    33  31  94 CALM      30.12S
SUNLIGHT       FOG       23  21  93 E6        30.06S VSB 1/2 WCI  16
WILKERSON PASS FAIR      27  23  86 E5        30.09F WCI  21
$$

COZ069>075-151700-
...SAN LUIS VALLEY/SANGRE DE CRISTO MOUNTAINS...

CITY           SKY/WX    TMP DP  RH WIND       PRES   REMARKS
ALAMOSA        CLOUDY    28  27  96 CALM      29.99S
LA VETA PASS   NOT AVBL
SAGUACHE       CLOUDY    32  27  80 N10       30.00S WCI  24
$$

COZ035-036-038>040-151700-
...NORTHERN COLORADO FRONT RANGE...

CITY           SKY/WX    TMP DP  RH WIND       PRES   REMARKS
DENVER INTL AP CLOUDY    30  26  85 W7        30.10R FOG     WCI  23
DMNS CITY PARK   N/A     29  25  82 E10       30.11R WCI  20
AURORA         NOT AVBL
FRONT RANGE AP CLOUDY    32  30  93 SW6       30.10S FOG     WCI  26
ERIE MUNI ARPT CLOUDY    28  26  94 CALM      30.11R FOG
BOULDER MUN AP PTSUNNY   30  27  86 CALM      30.10S
CENTENNIAL     CLOUDY    30  27  88 CALM      30.09R FOG
BROOMFIELD     CLOUDY    32  27  80 W5        30.10S WCI  27
FORT COLLINS   CLOUDY    28  27  93 CALM      30.12S
LONGMONT       CLOUDY    32  28  84 CALM      30.13S
$$

COZ041-046-047-076>085-087-088-151700-
...PIKES PEAK/PALMER DIVIDE AND SOUTHERN FOOTHILLS...

CITY           SKY/WX    TMP DP  RH WIND       PRES   REMARKS
COLO. SPRINGS  LGT SNOW  31  28  89 SE3       30.07S FOG
A. F. ACADEMY  FAIR      31  25  79 N7        30.05S WCI  24
SCHRIEVER AFB  NOT AVBL
ELLICOTT       LGT SNOW N/A N/A N/A NE9       30.06S
FALCON         LGT SNOW  31  26  82 N9        30.07S WCI  23
FORT CARSON    PTSUNNY   28  27  93 S5        30.09R FOG     WCI  23
LIMON          LGT SNOW  29  29 100 NW7       30.09F VSB 3/4 WCI  22
MONUMENT HILL  CLOUDY    27  27 100 NW6       30.09R FOG     WCI  20
TRINIDAD       CLOUDY    32  29  88 CALM      30.06S FOG
$$

COZ042>045-048>051-090-091-151700-
...NORTHEAST COLORADO...

CITY           SKY/WX    TMP DP  RH WIND       PRES   REMARKS
GREELEY ARPT   CLOUDY    27  25  92 W3        30.13S FOG
AKRON          CLOUDY    30  22  72 CALM      30.11R
BURLINGTON     FRZ RAIN  31  29  92 CALM      30.12S FOG
WRAY           NOT AVBL
STERLING       CLOUDY    28  27  93 CALM      30.12S
HOLYOKE        PTSUNNY   30  23  74 CALM      30.14F
FORT MORGAN    CLOUDY    28  24  88 CALM      30.12R
$$

COZ086-089-092>099-151700-
...SOUTHEAST COLORADO...

CITY           SKY/WX    TMP DP  RH WIND       PRES   REMARKS
PUEBLO         CLOUDY    30  26  85 NW3       30.09F FOG
LA JUNTA       CLOUDY    32  29  88 N5        30.10F FOG     WCI  27
LAMAR          FRZ RAIN  31  29  92 E5        30.13R VSB 3/4 WCI  26
SPRINGFIELD      N/A     30  30 100 NE6       30.08F WCI  24
$$




USA.gov is the U.S. government's official web portal to all federal, state and local government web resources and services.